Regional Weather Roundup
Issued by NWS

Home | Current Version | Previous Version | Text Only | Print | Product List | Glossary On
Versions: 1 2 3 4 5 6 7 8 9 10 11 12 13 14 15 16 17 18 19 20 21 22 23 24 25 26 27 28 29 30 31 32 33 34 35 36 37 38 39 40 41 42 43 44 45 46 47 48 49 50
000
ASUS45 KTFX 300319
RWRMT
MONTANA HOURLY WEATHER ROUNDUP
NATIONAL WEATHER SERVICE GREAT FALLS MT
919 PM MDT TUE JUL 29 2014

NOTE: "FAIR" INDICATES FEW OR NO CLOUDS BELOW 12000 FEET WITH NO
SIGNIFICANT WEATHER AND/OR OBSTRUCTIONS TO VISIBILITY.

* THESE STATIONS ARE NOT UNDER NWS QUALITY CONTROL. THEY DO NOT
   REPORT WEATHER SUCH AS PRECIPITATION OR FOG.

MTZ001>007-043-300400-
WEST OF THE DIVIDE
CITY           SKY/WX    TMP DP  RH WIND       PRES   REMARKS
KALISPELL      PTCLDY    79  46  31 N3        30.06R
MISSOULA       MOCLDY    88  28  11 N9        30.06R
BUTTE          PTCLDY    73  45  37 E20G25    30.26R
MULLAN PASS    PTCLDY    73  36  26 CALM      30.28S
* LINCOLN      N/A       81  41  24 NE5G12     N/A
* LOOKOUT PASS N/A       75  50  42 NE1        N/A
* POLSON       N/A       78  41  27 NE1        N/A
* RONAN APT    PTCLDY    82  52  35 N/A        N/A
* SEELEY LAKE  N/A       84  42  23 N2         N/A
* THOMP F APT  PTCLDY    57  53  87 N4G13      N/A
* YAAK HILL    N/A       86  48  27 S1         N/A
$$

MTZ008-052>055-300400-
SOUTHWEST MONTANA
CITY           SKY/WX    TMP DP  RH WIND       PRES   REMARKS
BOZEMAN        MOCLDY    72  45  38 W6        30.18R
DILLON         MOCLDY    72  46  40 SE5       30.21R
W YELLOWSTONE  CLOUDY    54  54 100 SE7       30.37F
* THREE FORKS  MOCLDY    79  54  42 N/A        N/A
* BOULDER HILL N/A       73  41  32 S4         N/A
* MONIDA PASS  N/A       56  51  83 E5         N/A
* RAYNOLDS PAS N/A       55  33  43 SE7        N/A
* WHITEHALL    N/A       80  43  27 E6G15      N/A
* WISE RIVER   N/A       75  41  30 E5G18      N/A
$$

MTZ009>010-012-014-046-048-049-054-300400-
EAST SLOPES AND CENTRAL MONTANA
CITY           SKY/WX    TMP DP  RH WIND       PRES   REMARKS
CUT BANK       PTCLDY    79  43  28 E6        30.15S
GREAT FALLS    PTCLDY    81  45  28 E7        30.13R
HELENA         MOCLDY    81  46  29 CALM      30.14R
MALMSTROM AFB  PTCLDY    79  43  28 E8        30.13S
* CONRAD       PTCLDY    77  52  42 N/A        N/A
* DEARBORN     N/A       85  43  23 E1         N/A
* EAST GLACIER N/A       70  50  49 N2         N/A
* MONARCH      N/A       74  40  29 E2         N/A
* ROGERS PASS  N/A       69  42  38 NW1        N/A
* SAINT MARY   N/A       81  41  24 SE4G9      N/A
* SWEET GRASS  N/A       81  40  23 SE9        N/A
* WHITE SULPH  N/A       68  45  44 NE5        N/A
$$

MTZ011-013-016-021-035-040-045-047-050-051-300400-
NORTH CENTRAL MONTANA
CITY           SKY/WX    TMP DP  RH WIND       PRES   REMARKS
HAVRE          PTCLDY    82  46  28 E12       30.10R
LEWISTOWN      CLEAR     77  39  26 SE8       30.20R
* FORT BENTON  PTCLDY    86  39  19 E3        30.10R
* CHESTER      N/A       84  39  20 E4         N/A
* DENTON       N/A       80  42  26 E9         N/A
* GEYSER       N/A       77  44  31 E8         N/A
* JUDITH GAP   N/A       73  42  33 E9         N/A
* LOMA         N/A       83  41  23 E6         N/A
$$

MTZ017>020-022>027-061-062-300400-
NORTHEAST MONTANA
CITY           SKY/WX    TMP DP  RH WIND       PRES   REMARKS
GLASGOW        CLEAR     77  48  36 E12       30.14R
GLENDIVE       CLEAR     72  48  43 NE7       30.19R
JORDAN         CLEAR     81  39  22 E9        30.15R
SIDNEY         CLEAR     70  52  53 N3        30.17R
WOLF POINT     CLEAR     75  50  42 E6        30.15R
* BEAVER HILL  N/A       71  48  44 N8         N/A
* CIRCLE       N/A       75  51  43 NE3        N/A
* LINDSAY DVD  N/A       69  49  49 N8         N/A
$$

MTZ028>042-056>058-300400-
SOUTHCENTRAL AND SOUTHEAST MONTANA
CITY           SKY/WX    TMP DP  RH WIND       PRES   REMARKS
BAKER          CLEAR     68  46  45 N8        30.18R
BILLINGS       PTCLDY    81  46  29 SE6       30.17R
LIVINGSTON     PTCLDY    75  43  32 NE6       30.19R
MILES CITY     CLEAR     79  43  28 NE10      30.15R
* LAUREL APT   PTCLDY    79  50  36 N/A        N/A
* ROUNDUP APT  CLEAR     79  37  22 N/A        N/A
* ALZADA       N/A       71  52  51 SE5        N/A
* HYSHAM       N/A       76  41  29 E4         N/A
* LAME DEER    N/A       72  41  33 NE7        N/A
* REED POINT   N/A       80  51  36 E11G16     N/A
* ROSCOE HILL  N/A       71  47  43 E12G17     N/A
$$

REGIONAL REPORTS...DAKOTAS
CITY           SKY/WX    TMP DP  RH WIND       PRES   REMARKS
WILLISTON      CLEAR     73  57  57 NE7       30.16R
DICKINSON      CLEAR     63  55  75 E6        30.15R
CROSBY         N/A       61  61 100 NE6       30.18R
TIOGA          CLEAR     63  63 100 CALM      30.20S
WATFORD CITY   CLEAR     66  55  68 E5        30.15R
BISMARCK       PTCLDY    68  57  68 E7        30.14R
GRAND FORKS    CLEAR     63  57  81 NW3       30.09R
FARGO          CLEAR     64  55  73 CALM      30.09R
BUFFALO SD     PTCLDY    72  52  49 S6        30.11S
RAPID CITY     MOCLDY    63  55  75 SW7       30.21F
$$

REGIONAL REPORTS...WYOMING/IDAHO/WASHINGTON
CITY           SKY/WX    TMP DP  RH WIND       PRES   REMARKS
GILLETTE       MOCLDY    63  55  75 SW3       30.25S
SHERIDAN       MOCLDY    64  52  65 S3        30.21S
YELLOWSTONE LA MOCLDY    52  48  86 CALM      30.44R
SALMON         CLOUDY    77  46  33 SE16G21   30.14R
MULLAN PASS    PTCLDY    73  36  26 CALM      30.28S
SAND POINT     CLEAR     72  52  49 CALM      29.99R
SPOKANE        FAIR      95  36  13 SW3       29.98S
$$

REGIONAL REPORTS...ALBERTA
CITY           SKY/WX    TMP DP  RH WIND       PRES   REMARKS
CALGARY        N/A       79  52  39 S8        30.13F
LETHBRIDGE     FAIR      70  61  73 SE9       30.10S
MEDICINE HAT   PTCLDY    82  52  35 NE6       30.07S
EDMONTON       MOCLDY    75  64  69 E7        30.07S
WATERTON GATE  N/A       66  57  73 SW3        N/A
CARDSTON       N/A       77  64  64 SW2        N/A
MILK RIVER     N/A       72  46  40 E10        N/A
$$

REGIONAL REPORTS...SASKATCHEWAN
CITY           SKY/WX    TMP DP  RH WIND       PRES   REMARKS
SWIFT CURRENT  CLEAR     70  57  64 SE10      30.16R
REGINA         N/A       72  59  64 E5        30.17S
VAL MARIE      N/A       63  55  75 E7         N/A
ASSINIBOIA     N/A       66  59  78 E5         N/A
CORONACH       N/A       64  55  73 N5         N/A

$$




USA.gov is the U.S. government's official web portal to all federal, state and local government web resources and services.